Quick links : Home Page : Contact Us : Index : Site Map : Search Site : Ephemerides


(41268) 1999 XO64

Orbital Elements

The following orbital elements are taken from MPO 97287
 (41268) 1999 XO64
Epoch 2007 Oct. 27.0 TT = JDT 2454400.5                 MPC
M 206.72987              (2000.0)            P               Q
n   0.08187643     Peri.   34.28702     -0.31757264     -0.90875209
a   5.2524683      Node    75.54920     +0.79524203     -0.41077481
e   0.1319609      Incl.   16.23741     +0.51646659     +0.07371355
P  12.0            H   12.1           G   0.15           U   1
From 55 observations at 4 oppositions, 1998-2002, mean residual 0".66.
An explanation of the orbital elements is available.

These orbital elements are also available in forms suitable for loading into a number of popular planetarium-type software programs.


Ephemeris

The following ephemeris is at intervals of five days. A daily ephemeris covering the same time interval is also available.

Personalized ephemerides for this (and other) objects may be generated using the Minor Planet & Comet Ephemeris Service.

Date    TT    R. A. (2000) Decl.     Delta      r     Elong.  Phase     V
2008 04 14    22 26.44   -24 25.7    6.311    5.812    56.1     8.2    20.5
2008 04 19    22 29.75   -24 18.8    6.244    5.809    60.1     8.6    20.5
2008 04 24    22 32.91   -24 13.3    6.174    5.806    64.1     9.0    20.5
2008 04 29    22 35.90   -24 09.2    6.102    5.804    68.2     9.3    20.5
2008 05 04    22 38.72   -24 06.6    6.027    5.801    72.3     9.5    20.4
2008 05 09    22 41.34   -24 05.6    5.951    5.798    76.4     9.7    20.4
2008 05 14    22 43.77   -24 06.3    5.874    5.795    80.6     9.9    20.4
2008 05 19    22 45.99   -24 08.7    5.796    5.793    84.8    10.0    20.4
2008 05 24    22 47.98   -24 12.7    5.717    5.790    89.1    10.1    20.3
2008 05 29    22 49.74   -24 18.6    5.638    5.787    93.4    10.1    20.3
2008 06 03    22 51.25   -24 26.2    5.560    5.784    97.7    10.0    20.3
2008 06 08    22 52.50   -24 35.6    5.483    5.781   102.1     9.9    20.2
2008 06 13    22 53.49   -24 46.7    5.407    5.778   106.5     9.7    20.2
2008 06 18    22 54.19   -24 59.5    5.333    5.775   111.0     9.5    20.2
2008 06 23    22 54.62   -25 13.9    5.262    5.772   115.5     9.1    20.1
2008 06 28    22 54.76   -25 29.8    5.193    5.769   120.0     8.8    20.1
2008 07 03    22 54.60   -25 47.1    5.128    5.766   124.6     8.3    20.0
2008 07 08    22 54.14   -26 05.5    5.067    5.763   129.1     7.9    20.0
2008 07 13    22 53.40   -26 25.0    5.010    5.760   133.7     7.3    19.9
2008 07 18    22 52.37   -26 45.2    4.959    5.757   138.2     6.8    19.9
2008 07 23    22 51.06   -27 05.9    4.913    5.754   142.7     6.1    19.8
2008 07 28    22 49.50   -27 26.8    4.872    5.751   147.0     5.5    19.8
2008 08 02    22 47.69   -27 47.6    4.838    5.747   151.1     4.9    19.7
2008 08 07    22 45.67   -28 08.0    4.810    5.744   154.8     4.3    19.7
2008 08 12    22 43.46   -28 27.6    4.789    5.741   157.9     3.8    19.7
2008 08 17    22 41.10   -28 46.2    4.775    5.738   160.1     3.4    19.6
2008 08 22    22 38.63   -29 03.3    4.768    5.734   161.0     3.3    19.6
2008 08 27    22 36.08   -29 18.9    4.769    5.731   160.5     3.4    19.6
2008 09 01    22 33.50   -29 32.5    4.776    5.728   158.6     3.7    19.6
2008 09 06    22 30.94   -29 43.9    4.791    5.724   155.7     4.2    19.7
2008 09 11    22 28.43   -29 53.1    4.812    5.721   152.1     4.7    19.7
2008 09 16    22 26.04   -29 59.8    4.840    5.718   148.0     5.3    19.7
2008 09 21    22 23.78   -30 04.1    4.874    5.714   143.7     6.0    19.8
2008 09 26    22 21.71   -30 05.9    4.915    5.711   139.2     6.6    19.8
2008 10 01    22 19.85   -30 05.2    4.961    5.707   134.5     7.2    19.9
2008 10 06    22 18.24   -30 02.0    5.012    5.704   129.8     7.7    19.9
2008 10 11    22 16.90   -29 56.5    5.068    5.700   125.1     8.2    20.0
2008 10 16    22 15.84   -29 48.7    5.128    5.697   120.4     8.7    20.0
2008 10 21    22 15.09   -29 38.9    5.191    5.693   115.7     9.1    20.1
2008 10 26    22 14.64   -29 27.0    5.258    5.690   111.0     9.4    20.1
2008 10 31    22 14.51   -29 13.2    5.327    5.686   106.3     9.6    20.1
2008 11 05    22 14.69   -28 57.7    5.399    5.683   101.7     9.8    20.2
2008 11 10    22 15.18   -28 40.7    5.471    5.679    97.1    10.0    20.2
2008 11 15    22 15.98   -28 22.2    5.545    5.675    92.5    10.0    20.2
2008 11 20    22 17.07   -28 02.4    5.619    5.672    88.1    10.0    20.3
2008 11 25    22 18.44   -27 41.5    5.692    5.668    83.6    10.0    20.3
2008 11 30    22 20.08   -27 19.4    5.765    5.664    79.2     9.8    20.3
2008 12 05    22 21.99   -26 56.4    5.837    5.661    74.9     9.7    20.3
2008 12 10    22 24.13   -26 32.6    5.908    5.657    70.6     9.4    20.3
2008 12 15    22 26.51   -26 08.0    5.976    5.653    66.3     9.2    20.4
2008 12 20    22 29.09   -25 42.7    6.042    5.649    62.1     8.9    20.4
2008 12 25    22 31.88   -25 16.9    6.105    5.645    58.0     8.5    20.4
2008 12 30    22 34.85   -24 50.6    6.165    5.642    53.9     8.1    20.4
2009 01 04    22 37.98   -24 23.8    6.222    5.638    49.8     7.7    20.4
2009 01 09    22 41.27   -23 56.8    6.275    5.634    45.8     7.2    20.4
2009 01 14    22 44.69   -23 29.5    6.323    5.630    41.9     6.7    20.4
2009 01 19    22 48.24   -23 01.9    6.368    5.626    38.1     6.2    20.4
2009 01 24    22 51.90   -22 34.3    6.408    5.622    34.3     5.7    20.3
2009 01 29    22 55.66   -22 06.6    6.443    5.618    30.7     5.1    20.3
 
2009 04 09    23 52.14   -16 12.2    6.399    5.561    30.7     5.3    20.3
2009 04 14    23 56.05   -15 52.0    6.358    5.556    34.1     5.8    20.3
2009 04 19    23 59.90   -15 33.0    6.313    5.552    37.7     6.4    20.3
2009 04 24    00 03.66   -15 15.0    6.263    5.548    41.3     6.9    20.3
2009 04 29    00 07.35   -14 58.3    6.210    5.544    45.0     7.4    20.3
2009 05 04    00 10.93   -14 42.9    6.153    5.539    48.7     7.9    20.3
2009 05 09    00 14.41   -14 28.8    6.092    5.535    52.5     8.3    20.3
2009 05 14    00 17.77   -14 16.2    6.028    5.531    56.3     8.7    20.3
2009 05 19    00 21.01   -14 05.1    5.960    5.526    60.1     9.1    20.3

Back to Observable Critical-List Minor Planets

MPC

Valid HTML 4.01!